GFSNIL_con_3kmhel_069.txt.gz
Helicity
24 77 59 76 75 40 62 56 178 273 273 219 258 289 242 221 212 101 46 142 180 181
57 22 82 76 25 30 -18 -31 120 168 153 179 243 231 274 206 127 7 102 75 173 205
115 64 53 85 70 2 -18 45 121 190 165 113 59 34 49 -25 -25 100 25 38 87 97
105 100 80 71 80 86 31 21 90 144 164 167 152 126 125 100 70 88 91 113 115 38
120 119 123 92 63 58 72 92 74 46 56 83 110 161 208 199 196 176 146 149 148 89
145 150 139 120 108 103 98 86 78 109 126 103 72 66 80 95 93 111 128 166 160 161
140 179 180 178 165 165 167 147 136 112 114 113 117 111 100 90 91 92 111 142 140 147
83 136 158 167 189 213 230 222 205 200 161 132 127 126 124 124 126 108 117 146 152 153
201 205 103 84 157 179 194 216 226 225 229 214 205 183 191 193 181 182 188 178 186 186
181 175 168 162 191 133 106 143 199 236 251 248 228 231 303 311 217 196 214 215 225 242
193 190 184 189 176 149 137 152 150 110 168 211 237 247 296 362 338 271 230 247 252 255
160 150 135 137 152 143 138 122 113 100 83 109 131 188 240 324 324 339 320 306 274 291
58 52 94 121 124 108 113 120 107 100 124 188 197 307 310 338 291 308 369 334 301 532
86 66 64 41 45 77 110 109 57 46 107 177 243 267 285 287 247 318 305 504 573 551

GFSNIL_con_3kmhel_072.txt.gz
Helicity
92 109 103 81 71 86 59 -7 115 159 191 177 151 175 239 221 245 205 198 224 170 138
69 76 77 79 84 84 50 -17 59 149 198 206 215 228 260 241 146 156 131 125 103 121
45 56 73 89 76 63 51 30 49 70 92 177 217 181 212 245 250 231 216 201 170 170
44 45 50 66 61 54 52 44 76 94 111 119 119 142 172 158 243 247 203 217 165 100
57 48 60 67 73 58 41 24 46 100 134 150 135 136 126 100 100 131 120 109 109 106
79 84 81 71 69 73 78 86 88 95 119 136 140 166 186 196 190 198 178 155 151 167
68 84 91 94 97 97 102 92 95 117 136 147 159 184 186 170 164 180 190 186 179 190
108 43 54 87 100 103 108 96 105 118 123 132 137 155 177 204 245 248 233 239 236 246
168 165 180 199 192 83 86 125 128 121 127 152 181 178 200 212 180 171 181 187 192 195
151 144 156 159 162 171 176 172 204 165 122 141 169 199 224 261 251 215 215 210 201 178
163 154 147 142 154 155 157 156 149 154 169 159 169 292 277 262 170 243 270 276 279 271
131 129 141 145 138 144 143 142 154 157 165 181 169 211 156 109 122 144 184 247 281 321
115 135 147 139 130 130 132 132 129 136 141 174 167 238 192 136 28 56 107 147 387 490
95 98 120 122 134 140 129 113 115 111 105 101 124 110 179 213 87 95 177 269 352 423

GFSNIL_con_3kmhel_075.txt.gz
Helicity
64 50 33 42 47 49 58 10 72 160 153 168 221 121 150 201 200 226 237 200 152 157
55 42 31 31 32 40 49 51 -45 33 119 142 143 144 152 184 229 285 261 237 221 200
44 31 22 20 20 32 36 28 -1 -20 51 121 159 116 179 153 196 298 314 278 228 148
36 28 20 18 24 36 36 31 21 4 24 44 85 108 162 118 134 154 125 175 195 120
49 37 23 13 7 6 21 39 45 48 46 59 57 54 67 81 94 136 162 175 180 161
60 58 41 29 17 9 0 5 17 35 60 76 66 81 98 91 84 86 62 104 132 142
81 75 72 49 45 40 23 6 8 17 25 36 60 93 97 83 84 90 95 118 161 176
132 123 114 101 67 51 60 47 40 37 30 28 40 75 101 127 132 119 117 124 117 132
152 135 138 125 113 121 144 147 107 65 56 69 164 284 200 57 98 158 161 154 155 172
146 130 129 126 135 150 149 144 160 189 208 230 283 268 243 207 140 127 141 154 166 174
126 133 137 144 152 167 171 189 189 195 204 199 200 223 194 156 97 117 122 134 132 146
128 134 143 159 161 167 151 147 153 168 191 176 173 203 187 130 83 96 177 269 321 287
115 129 148 151 155 153 139 137 135 156 171 216 173 239 236 196 138 180 205 287 333 426
142 139 142 145 164 159 155 145 159 165 162 154 182 195 236 239 185 166 191 233 256 280

GFSNIL_con_3kmhel_078.txt.gz
Helicity
78 59 42 29 31 34 28 21 47 57 82 107 158 159 154 140 186 155 142 126 103 106
69 57 49 44 30 18 19 29 -2 3 84 117 134 151 186 166 172 176 165 141 172 157
48 45 29 22 19 23 26 25 15 -48 12 93 53 68 151 141 151 185 201 202 231 221
50 49 36 21 9 -5 1 6 23 -11 -28 -62 41 102 95 83 131 160 180 169 238 253
73 60 45 30 12 -5 -9 -5 1 -0 7 24 28 124 110 101 153 112 93 110 135 172
95 86 63 41 25 6 1 -2 -19 -25 -19 -2 16 32 55 67 81 79 71 63 93 139
183 122 81 52 43 30 11 3 5 1 -2 5 6 -1 10 24 30 51 44 37 54 58
235 232 223 197 161 126 92 62 30 18 21 24 110 152 103 28 10 16 7 24 47 52
210 205 197 179 178 185 175 180 183 150 181 235 203 242 203 145 86 78 48 46 51 49
194 149 174 155 161 181 192 200 226 235 220 261 247 274 244 189 107 94 83 98 134 133
379 143 132 139 142 146 146 167 186 215 214 222 221 252 236 175 106 149 253 280 256 218
279 144 131 151 172 170 170 182 185 186 202 171 172 228 224 128 131 231 258 246 275 252
108 113 134 123 132 137 154 173 171 181 198 232 165 286 281 215 193 228 222 240 234 275
110 129 131 133 130 122 129 137 151 158 177 198 255 259 314 299 201 180 185 192 189 191

GFSNIL_con_3kmhel_081.txt.gz
Helicity
74 80 110 113 88 77 80 71 107 93 106 108 155 179 136 97 109 114 116 109 121 100
95 89 97 105 86 61 68 90 74 88 69 57 75 112 141 160 122 119 105 140 91 113
72 69 76 77 82 76 50 55 90 64 33 91 93 61 98 119 178 149 177 186 123 122
81 66 77 47 48 53 79 64 42 46 24 70 91 146 123 91 190 161 132 164 157 126
96 76 63 61 45 50 58 45 42 19 18 35 64 103 83 120 152 119 127 181 182 155
126 84 76 60 47 38 37 30 20 6 1 13 20 65 85 114 102 106 138 153 150 143
214 192 165 153 76 42 34 33 22 9 4 -10 -2 44 48 31 44 60 73 64 74 69
278 258 246 239 204 191 213 206 193 96 157 157 149 142 121 95 55 14 24 39 33 20
299 292 276 274 263 246 222 220 202 249 250 238 202 237 189 157 134 136 148 151 174 185
295 314 288 265 283 296 292 280 280 245 207 209 215 266 234 190 161 183 187 181 163 161
284 301 288 214 214 228 234 254 261 254 233 215 238 305 296 183 196 217 238 247 228 194
336 326 250 315 227 103 108 156 173 194 192 169 194 313 385 151 166 204 229 232 270 238
331 354 326 254 228 109 112 124 119 115 127 125 148 261 310 192 170 177 178 196 199 238
184 189 172 161 139 113 105 115 135 147 167 177 222 261 331 312 188 172 184 204 221 228

GFSNIL_con_3kmhel_084.txt.gz
Helicity
211 152 131 150 152 117 103 101 102 97 146 208 126 165 181 170 172 109 44 37 80 117
185 118 115 114 123 87 111 97 102 75 97 113 179 190 121 113 114 65 40 41 128 138
211 178 137 132 115 114 88 91 90 94 102 68 76 119 245 222 140 116 93 117 129 159
176 131 113 98 103 113 92 100 103 99 84 77 80 80 80 121 146 129 175 163 128 158
172 178 127 102 86 110 121 83 78 81 81 47 66 78 72 55 80 94 162 122 94 91
157 151 115 103 91 108 103 78 61 57 50 28 16 53 74 113 109 87 97 100 120 157
384 338 322 246 182 133 116 86 71 112 141 169 168 187 156 81 92 89 81 109 104 116
382 366 318 339 343 320 279 245 210 210 207 177 175 169 159 164 156 93 57 80 85 164
374 351 316 298 303 335 329 303 299 272 240 236 195 210 175 138 151 186 219 223 251 243
413 379 363 343 340 355 357 331 321 292 257 244 241 269 192 211 195 178 168 120 167 190
464 410 365 358 373 353 362 377 317 292 286 275 365 244 172 186 215 228 227 208 180 155
553 452 388 407 387 335 299 396 368 307 300 293 372 371 184 170 209 237 253 255 260 230
413 457 477 337 246 278 352 378 263 138 181 246 276 337 205 176 163 205 219 243 234 273
210 293 123 188 138 179 214 223 302 164 186 232 269 296 336 233 188 179 204 220 233 241

GFSNIL_con_3kmhel_087.txt.gz
Helicity
117 137 149 181 169 161 154 93 80 70 62 86 98 146 198 173 253 219 246 184 146 126
208 196 167 175 149 152 143 108 100 79 91 110 163 154 176 149 175 281 143 142 118 89
198 184 170 166 118 109 104 95 89 68 70 114 88 79 95 132 207 119 94 73 83 83
182 202 180 145 120 114 94 83 92 82 69 59 61 105 149 184 144 184 224 108 92 100
268 211 162 142 135 122 94 82 78 81 68 52 45 48 87 201 184 110 81 98 100 106
231 180 162 167 147 137 128 103 95 77 69 42 16 23 63 82 86 86 90 109 114 119
341 329 303 287 282 245 212 226 193 164 179 161 124 124 83 56 56 85 95 54 95 120
348 343 341 337 335 311 313 268 221 202 199 182 147 157 141 148 95 48 110 171 188 235
331 396 418 384 364 368 346 304 286 287 247 216 163 156 146 174 233 306 250 276 205 240
379 415 407 398 444 473 410 397 373 343 330 313 244 238 271 271 273 299 303 259 212 217
478 485 458 449 436 454 442 429 418 445 463 419 327 274 278 318 315 314 311 252 243 159
547 564 560 554 525 504 481 477 474 426 428 480 443 304 267 284 335 336 326 283 254 198
531 489 497 514 557 495 448 447 447 419 388 433 413 265 261 232 251 307 327 352 348 343
290 286 316 266 326 293 333 384 431 369 342 395 375 174 177 157 141 135 197 229 257 261

GFSNIL_con_3kmhel_093.txt.gz
Helicity
279 291 262 215 212 217 194 155 152 143 139 135 98 100 102 105 124 181 221 279 343 449
211 258 216 195 199 190 158 148 121 129 157 140 123 102 92 111 159 229 210 253 274 376
204 211 184 191 186 163 152 154 157 160 144 121 114 102 92 112 138 171 202 244 379 529
187 174 178 162 158 132 131 136 135 144 111 71 94 61 58 46 31 68 252 317 317 336
167 131 107 147 134 123 118 132 145 144 97 88 82 74 60 26 65 225 233 321 341 278
136 138 141 136 132 136 151 138 143 127 75 69 75 78 51 55 89 130 157 182 324 446
193 214 241 239 218 213 212 216 203 166 129 106 83 59 20 57 83 98 125 203 265 227
531 360 291 277 266 266 249 241 218 171 161 128 97 68 64 64 120 207 249 267 341 402
278 380 378 375 332 316 274 256 265 221 180 148 110 121 107 93 210 252 223 187 229 268
346 411 461 436 400 369 315 277 266 263 231 201 156 164 198 233 248 272 273 280 236 237
326 351 410 418 440 410 393 351 292 287 279 241 224 225 250 292 244 300 313 327 270 255
128 129 232 409 478 436 425 459 418 385 364 320 274 275 306 299 335 365 378 325 294 284
240 282 235 299 227 321 458 527 516 561 514 468 429 341 316 338 361 428 430 419 418 385
190 235 239 262 272 375 281 373 457 483 577 518 397 408 414 404 364 413 505 545 452 409

GFSNIL_con_3kmhel_096.txt.gz
Helicity
242 282 252 247 321 306 296 280 252 240 215 201 222 169 133 123 121 106 115 138 159 198
209 223 258 220 174 150 207 254 199 176 176 173 170 169 155 121 108 115 122 168 207 239
205 231 219 213 152 186 218 201 148 136 123 161 182 166 145 113 105 111 137 179 257 292
191 229 201 155 169 153 155 161 133 120 184 187 173 166 156 114 117 106 135 177 222 281
146 155 187 152 130 128 174 166 123 146 178 145 118 125 119 97 96 83 104 103 96 376
177 160 208 116 131 172 195 155 128 146 126 108 107 136 98 92 73 66 48 63 182 230
358 126 128 127 144 185 200 173 179 189 181 163 165 156 82 62 13 51 54 170 178 325
363 474 371 327 317 311 275 250 214 189 174 159 156 136 77 55 12 100 179 183 296 300
237 269 542 531 398 393 310 278 246 224 187 168 151 169 143 75 104 143 195 212 243 388
115 146 469 626 517 443 353 273 263 229 196 193 164 183 194 216 165 194 211 179 185 212
168 142 115 285 544 468 392 345 287 248 210 193 187 213 231 242 208 248 280 268 218 205
194 237 253 308 240 360 396 404 347 297 254 225 223 253 277 241 256 316 282 297 263 285
194 155 161 189 154 222 245 267 292 328 310 301 269 274 277 278 289 328 340 340 323 337
160 194 179 182 241 189 209 238 214 290 330 373 369 377 379 362 331 344 374 378 430 414

GFSNIL_con_3kmhel_099.txt.gz
Helicity
142 124 115 132 207 251 283 259 314 281 281 267 225 214 199 199 153 153 136 121 128 144
133 152 157 120 173 231 195 200 228 270 351 252 231 193 188 184 161 134 145 124 131 164
115 120 156 190 219 240 213 136 151 219 212 195 181 169 178 174 130 136 129 125 126 131
127 149 224 209 163 191 197 250 57 132 148 137 137 141 169 146 130 126 111 119 122 138
147 82 128 146 136 152 226 242 135 93 102 106 143 173 145 133 135 129 124 105 116 144
225 174 83 123 102 90 181 155 112 137 136 139 148 134 110 91 76 105 117 92 88 127
216 190 171 88 108 172 238 260 168 190 193 169 160 143 110 91 103 98 49 41 54 72
148 210 382 384 460 377 402 300 285 253 241 228 194 162 113 85 67 61 72 85 136 193
150 167 198 527 483 492 424 409 383 330 261 226 179 156 79 83 127 148 114 117 136 147
286 206 132 220 522 525 569 482 421 357 271 246 197 172 157 195 171 188 162 145 123 139
220 186 183 132 355 465 605 532 424 344 260 226 200 220 192 230 221 232 217 194 180 180
209 229 250 243 114 239 238 507 440 342 290 247 222 242 206 218 250 298 295 247 255 227
138 178 195 246 203 158 96 173 339 373 344 318 248 237 217 239 261 304 311 309 284 302
107 109 157 157 157 201 221 168 200 297 357 366 383 358 318 272 274 282 346 344 318 262

GFSNIL_con_3kmhel_102.txt.gz
Helicity
84 62 123 119 155 157 176 158 150 179 240 296 341 243 51 179 173 157 175 173 182 177
55 51 125 121 131 133 73 82 64 152 136 101 -100 -47 171 228 180 184 204 149 136 151
63 67 82 120 97 123 98 152 171 221 250 231 299 108 238 229 188 181 180 151 115 102
128 93 104 112 146 199 216 171 222 215 210 207 203 191 179 159 148 141 141 127 126 101
268 291 143 140 148 163 214 215 203 235 159 105 94 120 90 145 161 146 148 130 111 98
237 256 299 182 114 166 131 157 175 134 331 272 93 93 118 120 146 125 112 126 124 126
276 253 234 278 172 95 71 124 151 155 290 189 197 136 133 144 126 92 71 57 87 79
278 163 127 212 242 276 231 157 204 333 358 346 324 243 187 151 102 90 99 136 113 115
248 262 223 149 246 408 457 497 391 453 357 341 359 272 185 148 142 158 137 120 123 102
192 226 205 143 156 259 555 834 829 676 474 318 344 298 271 244 167 176 183 164 128 110
244 222 227 163 148 121 302 428 562 803 434 421 363 319 269 243 214 200 200 209 164 126
163 184 172 211 258 242 237 328 776 707 541 441 368 295 283 238 235 248 275 256 227 180
103 114 134 122 155 213 213 268 248 389 552 503 376 310 289 269 247 276 271 279 287 279
64 75 89 94 120 116 177 166 182 220 270 435 365 315 281 268 283 255 299 301 294 265

GFSNIL_con_3kmhel_105.txt.gz
Helicity
76 68 45 22 82 148 141 99 191 229 251 180 224 269 247 341 233 190 187 156 153 167
142 110 47 16 83 128 127 94 170 203 176 192 214 235 264 289 216 192 120 136 119 159
210 219 161 30 70 112 135 102 97 136 202 231 182 220 272 295 212 119 96 97 118 136
211 205 180 133 53 80 68 70 86 201 201 179 246 288 205 151 115 9 61 113 119 153
195 249 187 203 196 97 68 87 128 159 157 155 189 257 262 116 -32 33 35 48 115 132
240 292 277 242 251 154 90 140 155 149 135 133 143 214 158 84 -50 30 50 115 108 115
287 292 236 227 279 385 325 163 159 135 153 145 130 140 169 258 156 150 131 128 114 101
152 78 99 254 295 236 340 308 488 245 274 213 283 286 260 84 167 155 156 194 161 169
198 174 235 290 245 103 142 276 427 398 371 335 325 394 349 316 232 236 223 190 159 132
188 181 203 309 322 307 88 162 366 426 412 389 350 378 294 357 336 294 276 228 178 128
170 163 127 117 161 234 201 275 222 493 573 531 531 477 364 404 375 354 324 251 219 154
109 124 126 125 119 139 234 297 251 302 518 762 879 660 538 496 433 394 357 308 256 173
51 74 79 89 88 103 118 179 259 298 260 305 407 784 398 471 372 335 309 285 250 272
54 40 58 53 69 60 75 110 176 273 343 475 590 611 435 392 364 296 280 300 254 224

GFSNIL_con_3kmhel_108.txt.gz
Helicity
63 75 68 58 63 31 -43 105 243 76 164 229 288 323 349 201 245 325 232 204 112 250
86 85 76 60 66 82 37 23 142 142 153 170 239 273 341 249 201 164 240 159 110 96
103 110 63 33 63 123 75 53 102 115 116 168 206 278 263 208 187 196 244 251 190 194
113 131 77 29 67 140 142 47 89 137 157 166 231 216 253 198 211 218 190 232 221 216
90 143 132 59 91 187 205 170 58 87 150 169 213 238 220 277 261 215 261 238 232 152
111 146 179 163 186 165 180 134 129 52 107 144 193 197 256 246 258 248 149 192 75 107
122 150 151 195 231 235 180 154 190 283 111 161 106 154 200 204 216 192 172 164 121 94
117 129 130 124 190 337 200 106 187 342 383 358 304 232 152 138 143 101 134 284 206 222
110 130 131 129 196 229 317 156 90 287 572 313 390 453 284 132 192 215 202 197 101 181
126 135 151 120 140 206 317 321 227 238 297 297 364 577 582 417 405 395 389 380 295 231
141 136 145 156 156 145 187 223 275 255 245 217 328 558 623 587 543 546 390 413 323 268
91 83 77 122 121 91 76 102 148 260 294 369 256 349 439 578 594 583 495 479 416 317
36 42 56 54 68 68 52 53 63 135 214 341 354 364 487 393 646 649 534 481 455 384
35 18 37 30 44 41 30 28 58 71 115 180 248 256 288 524 332 457 545 546 493 326

GFSNIL_con_3kmhel_111.txt.gz
Helicity
31 10 9 20 27 49 91 93 87 60 49 132 200 218 163 166 268 389 299 276 206 234
50 37 33 44 58 75 74 100 65 116 36 112 158 187 -56 72 250 287 355 352 245 287
41 43 43 53 59 70 58 58 69 74 118 99 144 102 56 66 281 351 303 241 278 81
45 56 67 72 108 90 69 67 78 84 58 55 83 127 40 193 296 294 309 305 282 134
50 60 80 90 129 125 97 119 154 147 93 68 78 79 118 181 187 259 237 206 210 150
72 84 117 115 131 128 136 166 188 153 172 182 109 52 142 116 136 136 161 214 183 228
94 92 93 97 101 120 159 204 283 166 150 71 205 216 177 130 176 222 223 181 215 189
101 89 101 113 107 125 173 262 252 285 222 233 437 355 153 129 122 239 207 241 203 189
71 87 134 139 127 156 204 193 210 315 209 199 268 249 303 133 115 231 232 280 237 259
59 83 115 137 174 179 216 217 243 266 210 218 236 322 199 475 478 422 387 346 346 331
63 86 90 118 133 149 121 156 247 304 249 193 223 384 315 206 610 638 620 539 446 327
37 36 61 77 66 55 69 105 114 195 244 198 252 288 329 234 286 530 663 594 498 410
7 14 26 31 26 -0 -20 -3 3 51 121 210 223 283 317 272 91 224 472 650 612 494
15 20 24 15 13 6 10 4 32 36 60 99 139 159 202 196 160 110 155 235 413 448

GFSNIL_con_3kmhel_114.txt.gz
Helicity
24 1 7 21 11 14 14 24 63 64 107 128 140 108 167 233 311 301 243 288 490 277
29 30 26 46 29 10 13 -5 13 50 63 111 104 104 104 168 206 276 273 175 131 228
35 41 26 21 24 33 37 30 34 47 46 67 89 124 99 158 145 223 266 255 139 184
65 54 42 28 30 29 44 48 54 81 69 52 51 91 135 144 105 125 120 76 179 197
65 55 40 21 41 60 55 63 76 93 95 65 83 109 89 169 105 112 112 126 163 157
78 79 66 62 51 75 82 73 109 120 140 137 107 187 282 158 112 93 53 135 206 132
84 64 68 72 89 104 102 117 132 176 183 183 172 167 233 242 162 111 4 101 172 152
79 63 70 99 104 116 138 137 154 196 270 245 148 122 207 163 146 89 -126 147 250 246
94 81 74 100 120 120 146 170 228 266 253 247 145 228 240 189 160 229 293 293 287 273
99 87 79 49 66 142 175 167 202 271 320 324 282 248 252 334 273 335 268 485 433 327
92 58 46 23 5 11 28 40 72 153 240 332 376 372 321 315 187 184 374 412 510 439
49 20 27 29 9 -17 -6 31 47 44 87 169 245 326 326 300 295 266 320 167 414 524
32 29 41 38 27 -4 -13 -3 22 57 82 110 99 157 185 207 246 278 174 202 270 364
7 26 24 23 34 32 9 10 35 49 72 100 108 96 81 75 65 121 144 165 161 213

GFSNIL_con_3kmhel_117.txt.gz
Helicity
71 64 49 50 34 14 6 12 25 38 61 81 91 90 104 107 106 140 214 255 300 328
72 88 90 87 54 43 29 29 31 29 23 47 81 74 94 105 131 143 198 210 241 257
85 84 79 74 81 62 47 44 37 32 25 33 46 69 85 87 128 125 161 181 172 218
82 84 84 74 64 63 50 48 46 40 26 25 49 63 74 105 82 135 131 150 174 195
96 92 103 102 84 74 74 66 45 35 33 48 64 74 78 107 132 85 128 151 190 157
86 88 88 85 84 69 80 65 99 100 85 97 98 110 122 122 128 137 84 134 155 132
117 97 96 83 64 56 58 93 140 158 148 155 111 135 182 193 184 200 160 146 125 104
106 101 91 86 95 70 65 68 97 148 193 204 162 139 202 219 191 193 179 192 248 177
87 91 71 69 85 75 87 88 101 157 184 233 185 293 281 265 115 145 228 188 211 204
87 73 82 60 52 71 57 32 30 69 141 181 264 320 294 308 230 219 311 284 180 173
66 56 42 36 42 38 24 9 1 20 53 59 129 226 287 274 229 260 267 282 269 142
27 29 45 57 47 28 10 33 43 20 44 66 65 108 105 137 183 195 216 233 288 277
18 18 21 42 41 30 14 17 19 31 37 52 88 121 85 40 24 91 139 160 186 319
15 17 18 15 20 29 20 18 28 32 39 55 67 76 98 88 16 -27 -22 25 66 135

GFSNIL_con_3kmhel_120.txt.gz
Helicity
91 89 81 97 103 76 48 61 87 70 91 94 102 104 99 89 78 78 100 97 115 159
62 62 85 129 110 102 99 76 72 54 80 87 92 100 106 96 94 91 87 114 121 137
57 76 89 105 125 118 112 112 97 73 67 69 89 95 106 95 115 93 102 115 101 108
45 60 54 60 80 88 102 104 109 92 66 74 74 94 107 117 120 125 126 103 108 83
52 62 76 94 99 96 80 70 58 66 73 73 93 85 82 104 140 149 155 129 106 103
89 98 98 93 109 111 107 107 101 94 108 96 100 98 101 107 138 166 196 218 247 119
113 113 114 109 109 113 104 117 132 134 117 101 126 111 98 101 149 191 208 265 284 256
118 105 79 65 60 49 53 77 98 114 130 130 149 138 147 112 130 167 239 281 319 306
101 84 57 28 37 38 43 43 58 69 106 162 160 200 167 105 78 135 168 206 250 301
81 73 38 13 23 41 48 32 26 36 37 54 72 107 84 104 59 74 157 189 218 237
55 33 45 46 52 70 47 37 25 45 45 50 96 113 66 -8 -15 15 78 150 198 194
21 33 49 61 52 52 46 31 14 -4 26 44 54 104 104 48 11 -7 6 15 69 163
19 26 33 31 29 26 12 3 1 -7 9 40 50 95 93 51 19 18 3 -5 4 66
-2 1 8 13 24 19 -8 6 4 -1 1 22 31 44 93 86 -1 -4 -11 -9 11 11

GFSNIL_con_3kmhel_123.txt.gz
Helicity
57 54 -66 -13 18 56 38 49 85 106 126 137 124 123 114 105 96 99 90 82 90 102
68 88 96 86 51 46 55 75 87 115 142 125 113 114 114 98 104 83 89 79 66 76
44 51 62 56 40 55 109 122 125 144 143 123 106 103 102 88 94 92 86 91 95 89
78 84 55 82 73 98 114 138 143 130 121 128 133 123 131 116 109 113 128 127 135 129
61 57 69 81 83 86 97 99 134 154 154 174 176 159 113 124 147 166 192 192 188 182
105 92 93 89 85 71 57 64 92 137 184 181 194 187 150 137 155 161 185 199 204 232
94 93 92 77 68 66 53 39 54 63 105 144 181 148 134 152 178 183 188 185 183 198
63 65 73 65 38 19 21 42 49 40 57 66 84 109 132 107 141 172 185 203 193 185
75 88 100 53 30 32 32 37 33 35 30 54 48 62 31 -9 25 98 150 223 258 246
94 105 66 37 52 45 45 24 34 37 40 47 74 123 68 21 -35 -14 35 103 239 264
68 24 30 40 49 34 22 21 19 25 35 34 71 121 115 52 -2 -17 9 10 92 134
21 31 30 31 24 15 14 8 2 5 26 53 73 137 141 89 49 41 30 20 0 40
27 22 23 21 20 1 1 -7 -15 -1 20 34 55 110 112 81 33 31 35 41 49 103
6 8 8 -1 4 11 17 3 6 8 16 33 38 53 97 96 20 2 -4 4 41 50

GFSNIL_con_3kmhel_126.txt.gz
Helicity
81 98 123 141 106 134 34 -17 -21 90 105 132 135 140 139 121 115 112 93 79 73 87
67 75 66 59 55 64 49 28 64 54 76 109 120 148 155 140 136 119 102 88 65 66
99 97 99 86 85 85 79 88 90 84 97 104 127 148 164 164 171 141 101 91 110 75
99 106 69 93 107 90 60 63 54 86 99 102 137 172 175 179 173 182 162 140 145 152
105 97 100 89 84 70 56 52 71 74 82 110 119 128 150 180 189 201 195 198 178 166
87 86 86 93 82 54 50 52 59 68 81 75 70 81 86 110 139 171 192 196 195 195
73 70 82 82 76 65 54 62 60 50 37 34 22 31 42 57 82 101 123 164 176 206
62 64 71 75 59 47 56 52 44 42 45 35 44 44 38 8 23 45 81 118 134 172
74 80 88 74 32 37 38 39 35 35 38 62 49 104 69 30 9 23 27 46 64 75
76 76 58 20 29 28 26 28 30 36 33 51 89 142 87 52 12 16 29 39 61 66
52 21 21 33 36 32 24 27 23 27 35 36 77 129 116 50 25 12 31 39 63 57
31 29 37 37 36 33 28 28 32 32 42 53 54 124 124 47 21 25 32 28 44 81
40 36 32 27 29 19 6 14 8 22 31 48 50 101 121 71 9 20 20 26 33 92
36 23 17 12 11 7 14 23 26 20 27 41 47 53 90 86 7 -19 -15 -10 -2 7